Hourly Data Report for October 07, 2012

All times are specified in Local Standard Time (LST). Add 1 hour to adjust for Daylight Saving Time where and when it is observed.

KITCHENER/WATERLOO
ONTARIO

43°27'39.000" N
80°22'43.000" W
321.60 m
6144239
71368
YKF

Download Data

Hourly Data (October 2012)
Hourly Data Report for October 7, 2012
Temp Definition
°C
Dew Point Temp Definition
°C
Rel Hum Definition
%
Wind Dir Definition
10's deg

Wind Spd Definition
km/h
Visibility Definition
km
Stn Press Definition
kPa
Hmdx Definition


Wind Chill Definition


Weather Definition


TIME
00:00 Legend Double Dagger 5.3 2.7 83 23 9 16.1 97.88     LegendNANA
01:00 Legend Double Dagger 5.5 3.0 84 23 13 16.1 97.92     LegendNANA
02:00 Legend Double Dagger 5.4 2.8 83 24 13 16.1 97.93     LegendNANA
03:00 Legend Double Dagger 5.2 2.9 85 25 11 16.1 97.91     LegendNANA
04:00 Legend Double Dagger 4.4 2.8 89 27 11 16.1 97.91     LegendNANA
05:00 Legend Double Dagger 4.3 3.0 91 29 9 16.1 97.89     LegendNANA
06:00 Legend Double Dagger 4.0 2.7 91 32 8 16.1 97.85     LegendNANA
07:00 Legend Double Dagger 4.3 3.1 92 LegendMM 4 16.1 97.89     LegendNANA
08:00 Legend Double Dagger 5.0 3.1 88 29 18 16.1 97.94     LegendNANA
09:00 Legend Double Dagger 5.6 2.6 81 30 5 16.1 97.97     LegendNANA
10:00 Legend Double Dagger 6.5 2.3 74   0 16.1 97.98     LegendNANA
11:00 Legend Double Dagger 7.0 2.3 72 28 8 16.1 97.96     LegendNANA
12:00 Legend Double Dagger 7.0 1.9 70 3 5 16.1 97.93     LegendNANA
13:00 Legend Double Dagger 4.8 3.3 90 28 15 11.3 97.92     LegendNANA
14:00 Legend Double Dagger 6.5 3.5 81 30 11 16.1 97.87     LegendNANA
15:00 Legend Double Dagger 6.4 2.4 75 30 8 16.1 97.88     LegendNANA
16:00 Legend Double Dagger 7.0 2.8 75 27 15 16.1 97.88     LegendNANA
17:00 Legend Double Dagger 5.4 2.2 80 28 17 16.1 97.95     LegendNANA
18:00 Legend Double Dagger 4.9 2.7 85 26 9 16.1 97.99     LegendNANA
19:00 Legend Double Dagger 3.1 1.8 91 26 8 16.1 98.04     LegendNANA
20:00 Legend Double Dagger 1.8 0.9 94 24 4 16.1 98.08     LegendNANA
21:00 Legend Double Dagger 0.5 0.2 98   0 4.8 98.10     LegendNANA
22:00 Legend Double Dagger -0.3 -0.4 99   0 1.2 98.11     LegendNANA
23:00 Legend Double Dagger 0.2 0.2 100 9 4 16.1 98.12     LegendNANA

Notes on Data Quality.

Legend

  • E = Estimated
  • M = Missing
  • NA = Not Available
  • ‡ = Partner data that is not subject to review by the National Climate Archives
Date modified: